Year,Month,Day,Hour,Minute,Value (Times are PST for temperature in C)
2020,08,17,00,00,19.00
2020,08,17,00,01,18.90
2020,08,17,00,02,18.90
2020,08,17,00,03,18.90
2020,08,17,00,04,18.90
2020,08,17,00,05,18.90
2020,08,17,00,06,18.90
2020,08,17,00,07,18.90
2020,08,17,00,08,18.90
2020,08,17,00,09,18.90
2020,08,17,00,10,18.90
2020,08,17,00,11,18.90
2020,08,17,00,12,18.90
2020,08,17,00,13,18.90
2020,08,17,00,14,19.00
2020,08,17,00,15,19.10
2020,08,17,00,16,19.10
2020,08,17,00,17,19.10
2020,08,17,00,18,19.10
2020,08,17,00,19,19.10
2020,08,17,00,20,19.10
2020,08,17,00,21,19.10
2020,08,17,00,22,19.10
2020,08,17,00,23,19.10
2020,08,17,00,24,19.10
2020,08,17,00,25,19.10
2020,08,17,00,26,19.10
2020,08,17,00,27,19.10
2020,08,17,00,28,19.00
2020,08,17,00,29,18.90
2020,08,17,00,30,18.90
2020,08,17,00,31,18.90
2020,08,17,00,32,18.90
2020,08,17,00,33,18.90
2020,08,17,00,34,18.90
2020,08,17,00,35,18.90
2020,08,17,00,36,18.90
2020,08,17,00,37,18.90
2020,08,17,00,38,18.90
2020,08,17,00,39,18.80
2020,08,17,00,40,18.80
2020,08,17,00,41,18.80
2020,08,17,00,42,18.80
2020,08,17,00,43,18.80
2020,08,17,00,44,18.80
2020,08,17,00,45,18.80
2020,08,17,00,46,18.80
2020,08,17,00,47,18.70
2020,08,17,00,48,18.70
2020,08,17,00,49,18.70
2020,08,17,00,50,18.70
2020,08,17,00,51,18.70
2020,08,17,00,52,18.70
2020,08,17,00,53,18.70
2020,08,17,00,54,18.70
2020,08,17,00,55,18.70
2020,08,17,00,56,18.70
2020,08,17,00,57,18.70
2020,08,17,00,58,18.70
2020,08,17,00,59,18.70
2020,08,17,01,00,18.60
2020,08,17,01,01,18.60
2020,08,17,01,02,18.60
2020,08,17,01,03,18.60
2020,08,17,01,04,18.60
2020,08,17,01,05,18.60
2020,08,17,01,06,18.60
2020,08,17,01,07,18.60
2020,08,17,01,08,18.60
2020,08,17,01,09,18.50
2020,08,17,01,10,18.50
2020,08,17,01,11,18.50
2020,08,17,01,12,18.50
2020,08,17,01,13,18.50
2020,08,17,01,14,18.50
2020,08,17,01,15,18.50
2020,08,17,01,16,18.50
2020,08,17,01,17,18.50
2020,08,17,01,18,18.50
2020,08,17,01,19,18.40
2020,08,17,01,20,18.40
2020,08,17,01,21,18.40
2020,08,17,01,22,18.40
2020,08,17,01,23,18.40
2020,08,17,01,24,18.40
2020,08,17,01,25,18.40
2020,08,17,01,26,18.40
2020,08,17,01,27,18.40
2020,08,17,01,28,18.30
2020,08,17,01,29,18.30
2020,08,17,01,30,18.30
2020,08,17,01,31,18.30
2020,08,17,01,32,18.30
2020,08,17,01,33,18.30
2020,08,17,01,34,18.30
2020,08,17,01,35,18.30
2020,08,17,01,36,18.30
2020,08,17,01,37,18.30
2020,08,17,01,38,18.30
2020,08,17,01,39,18.30
2020,08,17,01,40,18.20
2020,08,17,01,41,18.20
2020,08,17,01,42,18.20
2020,08,17,01,43,18.20
2020,08,17,01,44,18.20
2020,08,17,01,45,18.20
2020,08,17,01,46,18.20
2020,08,17,01,47,18.20
2020,08,17,01,48,18.20
2020,08,17,01,49,18.10
2020,08,17,01,50,18.10
2020,08,17,01,51,18.10
2020,08,17,01,52,18.10
2020,08,17,01,53,18.00
2020,08,17,01,54,17.90
2020,08,17,01,55,17.90
2020,08,17,01,56,17.90
2020,08,17,01,57,17.90
2020,08,17,01,58,17.90
2020,08,17,01,59,17.90
2020,08,17,02,00,17.90
2020,08,17,02,01,17.90
2020,08,17,02,02,17.90
2020,08,17,02,03,17.90
2020,08,17,02,04,17.90
2020,08,17,02,05,17.90
2020,08,17,02,06,17.90
2020,08,17,02,07,17.90
2020,08,17,02,08,17.90
2020,08,17,02,09,17.90
2020,08,17,02,10,17.90
2020,08,17,02,11,17.90
2020,08,17,02,12,17.90
2020,08,17,02,13,17.90
2020,08,17,02,14,17.90
2020,08,17,02,15,17.90
2020,08,17,02,16,17.80
2020,08,17,02,17,17.80
2020,08,17,02,18,17.80
2020,08,17,02,19,17.80
2020,08,17,02,20,17.70
2020,08,17,02,21,17.70
2020,08,17,02,22,17.70
2020,08,17,02,23,17.70
2020,08,17,02,24,17.70
2020,08,17,02,25,17.70
2020,08,17,02,26,17.60
2020,08,17,02,27,17.60
2020,08,17,02,28,17.60
2020,08,17,02,29,17.60
2020,08,17,02,30,17.50
2020,08,17,02,31,17.50
2020,08,17,02,32,17.50
2020,08,17,02,33,17.50
2020,08,17,02,34,17.50
2020,08,17,02,35,17.50
2020,08,17,02,36,17.40
2020,08,17,02,37,17.40
2020,08,17,02,38,17.40
2020,08,17,02,39,17.40
2020,08,17,02,40,17.40
2020,08,17,02,41,17.40
2020,08,17,02,42,17.40
2020,08,17,02,43,17.30
2020,08,17,02,44,17.30
2020,08,17,02,45,17.30
2020,08,17,02,46,17.30
2020,08,17,02,47,17.30
2020,08,17,02,48,17.30
2020,08,17,02,49,17.30
2020,08,17,02,50,17.30
2020,08,17,02,51,17.30
2020,08,17,02,52,17.30
2020,08,17,02,53,17.30
2020,08,17,02,54,17.30
2020,08,17,02,55,17.30
2020,08,17,02,56,17.30
2020,08,17,02,57,17.30
2020,08,17,02,58,17.30
2020,08,17,02,59,17.30
2020,08,17,03,00,17.30
2020,08,17,03,01,17.30
2020,08,17,03,02,17.30
2020,08,17,03,03,17.30
2020,08,17,03,04,17.30
2020,08,17,03,05,17.30
2020,08,17,03,06,17.30
2020,08,17,03,07,17.30
2020,08,17,03,08,17.30
2020,08,17,03,09,17.30
2020,08,17,03,10,17.30
2020,08,17,03,11,17.30
2020,08,17,03,12,17.30
2020,08,17,03,13,17.30
2020,08,17,03,14,17.30
2020,08,17,03,15,17.30
2020,08,17,03,16,17.30
2020,08,17,03,17,17.30
2020,08,17,03,18,17.30
2020,08,17,03,19,17.30
2020,08,17,03,20,17.30
2020,08,17,03,21,17.30
2020,08,17,03,22,17.30
2020,08,17,03,23,17.30
2020,08,17,03,24,17.30
2020,08,17,03,25,17.30
2020,08,17,03,26,17.30
2020,08,17,03,27,17.30
2020,08,17,03,28,17.30
2020,08,17,03,29,17.30
2020,08,17,03,30,17.30
2020,08,17,03,31,17.30
2020,08,17,03,32,17.30
2020,08,17,03,33,17.30
2020,08,17,03,34,17.30
2020,08,17,03,35,17.30
2020,08,17,03,36,17.30
2020,08,17,03,37,17.30
2020,08,17,03,38,17.30
2020,08,17,03,39,17.30
2020,08,17,03,40,17.30
2020,08,17,03,41,17.30
2020,08,17,03,42,17.30
2020,08,17,03,43,17.30
2020,08,17,03,44,17.30
2020,08,17,03,45,17.30
2020,08,17,03,46,17.30
2020,08,17,03,47,17.30
2020,08,17,03,48,17.30
2020,08,17,03,49,17.30
2020,08,17,03,50,17.30
2020,08,17,03,51,17.30
2020,08,17,03,52,17.30
2020,08,17,03,53,17.30
2020,08,17,03,54,17.30
2020,08,17,03,55,17.30
2020,08,17,03,56,17.30
2020,08,17,03,57,17.30
2020,08,17,03,58,17.30
2020,08,17,03,59,17.30
2020,08,17,04,00,17.30
2020,08,17,04,01,17.30
2020,08,17,04,02,17.30
2020,08,17,04,03,17.30
2020,08,17,04,04,17.30
2020,08,17,04,05,17.20
2020,08,17,04,06,17.20
2020,08,17,04,07,17.20
2020,08,17,04,08,17.20
2020,08,17,04,09,17.10
2020,08,17,04,10,17.10
2020,08,17,04,11,17.10
2020,08,17,04,12,17.10
2020,08,17,04,13,17.10
2020,08,17,04,14,17.10
2020,08,17,04,15,17.10
2020,08,17,04,16,17.00
2020,08,17,04,17,17.00
2020,08,17,04,18,17.00
2020,08,17,04,19,17.00
2020,08,17,04,20,17.00
2020,08,17,04,21,17.00
2020,08,17,04,22,17.00
2020,08,17,04,23,17.00
2020,08,17,04,24,17.00
2020,08,17,04,25,17.00
2020,08,17,04,26,17.10
2020,08,17,04,27,17.10
2020,08,17,04,28,17.10
2020,08,17,04,29,17.10
2020,08,17,04,30,17.10
2020,08,17,04,31,17.10
2020,08,17,04,32,17.10
2020,08,17,04,33,17.10
2020,08,17,04,34,17.10
2020,08,17,04,35,17.20
2020,08,17,04,36,17.20
2020,08,17,04,37,17.20
2020,08,17,04,38,17.20
2020,08,17,04,39,17.20
2020,08,17,04,40,17.20
2020,08,17,04,41,17.20
2020,08,17,04,42,17.20
2020,08,17,04,43,17.10
2020,08,17,04,44,17.10
2020,08,17,04,45,17.10
2020,08,17,04,46,17.10
2020,08,17,04,47,17.10
2020,08,17,04,48,17.10
2020,08,17,04,49,17.00
2020,08,17,04,50,17.00
2020,08,17,04,51,17.00
2020,08,17,04,52,17.00
2020,08,17,04,53,17.00
2020,08,17,04,54,17.00
2020,08,17,04,55,17.00
2020,08,17,04,56,17.10
2020,08,17,04,57,17.10
2020,08,17,04,58,17.10
2020,08,17,04,59,17.10
2020,08,17,05,00,17.10
2020,08,17,05,01,17.10
2020,08,17,05,02,17.10
2020,08,17,05,03,17.00
2020,08,17,05,04,17.00
2020,08,17,05,05,17.00
2020,08,17,05,06,17.00
2020,08,17,05,07,17.00
2020,08,17,05,08,17.00
2020,08,17,05,09,16.90
2020,08,17,05,10,16.90
2020,08,17,05,11,16.90
2020,08,17,05,12,16.90
2020,08,17,05,13,16.90
2020,08,17,05,14,16.90
2020,08,17,05,15,16.90
2020,08,17,05,16,16.90
2020,08,17,05,17,16.90
2020,08,17,05,18,16.80
2020,08,17,05,19,16.80
2020,08,17,05,20,16.80
2020,08,17,05,21,16.70
2020,08,17,05,22,16.70
2020,08,17,05,23,16.70
2020,08,17,05,24,16.70
2020,08,17,05,25,16.70
2020,08,17,05,26,16.60
2020,08,17,05,27,16.60
2020,08,17,05,28,16.60
2020,08,17,05,29,16.60
2020,08,17,05,30,16.60
2020,08,17,05,31,16.60
2020,08,17,05,32,16.60
2020,08,17,05,33,16.60
2020,08,17,05,34,16.60
2020,08,17,05,35,16.60
2020,08,17,05,36,16.60
2020,08,17,05,37,16.60
2020,08,17,05,38,16.60
2020,08,17,05,39,16.50
2020,08,17,05,40,16.50
2020,08,17,05,41,16.60
2020,08,17,05,42,16.60
2020,08,17,05,43,16.60
2020,08,17,05,44,16.60
2020,08,17,05,45,16.60
2020,08,17,05,46,16.60
2020,08,17,05,47,16.60
2020,08,17,05,48,16.60
2020,08,17,05,49,16.60
2020,08,17,05,50,16.60
2020,08,17,05,51,16.60
2020,08,17,05,52,16.60
2020,08,17,05,53,16.60
2020,08,17,05,54,16.60
2020,08,17,05,55,16.60
2020,08,17,05,56,16.60
2020,08,17,05,57,16.70
2020,08,17,05,58,16.70
2020,08,17,05,59,16.70
2020,08,17,06,00,16.70
2020,08,17,06,01,16.70
2020,08,17,06,02,16.70
2020,08,17,06,03,16.70
2020,08,17,06,04,16.70
2020,08,17,06,05,16.70
2020,08,17,06,06,16.70
2020,08,17,06,07,16.70
2020,08,17,06,08,16.70
2020,08,17,06,09,16.70
2020,08,17,06,10,16.70
2020,08,17,06,11,16.60
2020,08,17,06,12,16.60
2020,08,17,06,13,16.60
2020,08,17,06,14,16.60
2020,08,17,06,15,16.60
2020,08,17,06,16,16.60
2020,08,17,06,17,16.60
2020,08,17,06,18,16.60
2020,08,17,06,19,16.60
2020,08,17,06,20,16.60
2020,08,17,06,21,16.60
2020,08,17,06,22,16.60
2020,08,17,06,23,16.60
2020,08,17,06,24,16.60
2020,08,17,06,25,16.60
2020,08,17,06,26,16.60
2020,08,17,06,27,16.60
2020,08,17,06,28,16.60
2020,08,17,06,29,16.60
2020,08,17,06,30,16.60
2020,08,17,06,31,16.60
2020,08,17,06,32,16.60
2020,08,17,06,33,16.60
2020,08,17,06,34,16.60
2020,08,17,06,35,16.60
2020,08,17,06,36,16.40
2020,08,17,06,37,16.40
2020,08,17,06,38,16.40
2020,08,17,06,39,16.40
2020,08,17,06,40,16.40
2020,08,17,06,41,16.40
2020,08,17,06,42,16.40
2020,08,17,06,43,16.40
2020,08,17,06,44,16.40
2020,08,17,06,45,16.40
2020,08,17,06,46,16.40
2020,08,17,06,47,16.40
2020,08,17,06,48,16.40
2020,08,17,06,49,16.40
2020,08,17,06,50,16.40
2020,08,17,06,51,16.40
2020,08,17,06,52,16.40
2020,08,17,06,53,16.40
2020,08,17,06,54,16.40
2020,08,17,06,55,16.40
2020,08,17,06,56,16.40
2020,08,17,06,57,16.30
2020,08,17,06,58,16.30
2020,08,17,06,59,16.30
2020,08,17,07,00,16.30
2020,08,17,07,01,16.30
2020,08,17,07,02,16.30
2020,08,17,07,03,16.30
2020,08,17,07,04,16.30
2020,08,17,07,05,16.30
2020,08,17,07,06,16.30
2020,08,17,07,07,16.30
2020,08,17,07,08,16.30
2020,08,17,07,09,16.30
2020,08,17,07,10,16.40
2020,08,17,07,11,16.40
2020,08,17,07,12,16.40
2020,08,17,07,13,16.40
2020,08,17,07,14,16.40
2020,08,17,07,15,16.40
2020,08,17,07,16,16.40
2020,08,17,07,17,16.50
2020,08,17,07,18,16.60
2020,08,17,07,19,16.60
2020,08,17,07,20,16.60
2020,08,17,07,21,16.70
2020,08,17,07,22,16.70
2020,08,17,07,23,16.70
2020,08,17,07,24,16.90
2020,08,17,07,25,16.90
2020,08,17,07,26,17.00
2020,08,17,07,27,17.00
2020,08,17,07,28,17.10
2020,08,17,07,29,17.10
2020,08,17,07,30,17.20
2020,08,17,07,31,17.30
2020,08,17,07,32,17.30
2020,08,17,07,33,17.40
2020,08,17,07,34,17.50
2020,08,17,07,35,17.50
2020,08,17,07,36,17.60
2020,08,17,07,37,17.70
2020,08,17,07,38,17.80
2020,08,17,07,39,17.90
2020,08,17,07,40,17.90
2020,08,17,07,41,18.00
2020,08,17,07,42,18.10
2020,08,17,07,43,18.10
2020,08,17,07,44,18.20
2020,08,17,07,45,18.20
2020,08,17,07,46,18.20
2020,08,17,07,47,18.20
2020,08,17,07,48,18.20
2020,08,17,07,49,18.30
2020,08,17,07,50,18.30
2020,08,17,07,51,18.40
2020,08,17,07,52,18.40
2020,08,17,07,53,18.50
2020,08,17,07,54,18.50
2020,08,17,07,55,18.60
2020,08,17,07,56,18.70
2020,08,17,07,57,18.90
2020,08,17,07,58,19.00
2020,08,17,07,59,19.10
2020,08,17,08,00,19.20
2020,08,17,08,01,19.30
2020,08,17,08,02,19.40
2020,08,17,08,03,19.50
2020,08,17,08,04,19.60
2020,08,17,08,05,19.80
2020,08,17,08,06,19.90
2020,08,17,08,07,20.10
2020,08,17,08,08,20.20
2020,08,17,08,09,20.30
2020,08,17,08,10,20.40
2020,08,17,08,11,20.50
2020,08,17,08,12,20.70
2020,08,17,08,13,20.80
2020,08,17,08,14,20.90
2020,08,17,08,15,21.00
2020,08,17,08,16,21.10
2020,08,17,08,17,21.20
2020,08,17,08,18,21.30
2020,08,17,08,19,21.30
2020,08,17,08,20,21.40
2020,08,17,08,21,21.60
2020,08,17,08,22,21.60
2020,08,17,08,23,21.70
2020,08,17,08,24,21.80
2020,08,17,08,25,21.90
2020,08,17,08,26,21.90
2020,08,17,08,27,22.00
2020,08,17,08,28,22.00
2020,08,17,08,29,22.00
2020,08,17,08,30,22.00
2020,08,17,08,31,22.00
2020,08,17,08,32,22.10
2020,08,17,08,33,22.10
2020,08,17,08,34,22.10
2020,08,17,08,35,22.20
2020,08,17,08,36,22.20
2020,08,17,08,37,22.30
2020,08,17,08,38,22.30
2020,08,17,08,39,22.40
2020,08,17,08,40,22.40
2020,08,17,08,41,22.50
2020,08,17,08,42,22.50
2020,08,17,08,43,22.60
2020,08,17,08,44,22.60
2020,08,17,08,45,22.70
2020,08,17,08,46,22.70
2020,08,17,08,47,22.80
2020,08,17,08,48,22.90
2020,08,17,08,49,22.90
2020,08,17,08,50,22.90
2020,08,17,08,51,23.00
2020,08,17,08,52,23.10
2020,08,17,08,53,23.10
2020,08,17,08,54,23.20
2020,08,17,08,55,23.20
2020,08,17,08,56,23.30
2020,08,17,08,57,23.30
2020,08,17,08,58,23.30
2020,08,17,08,59,23.30
2020,08,17,09,00,23.30
2020,08,17,09,01,23.30
2020,08,17,09,02,23.40
2020,08,17,09,03,23.40
2020,08,17,09,04,23.40
2020,08,17,09,05,23.40
2020,08,17,09,06,23.60
2020,08,17,09,07,23.60
2020,08,17,09,08,23.70
2020,08,17,09,09,23.70
2020,08,17,09,10,23.70
2020,08,17,09,11,23.70
2020,08,17,09,12,23.70
2020,08,17,09,13,23.70
2020,08,17,09,14,23.70
2020,08,17,09,15,23.80
2020,08,17,09,16,23.80
2020,08,17,09,17,23.80
2020,08,17,09,18,23.80
2020,08,17,09,19,23.90
2020,08,17,09,20,23.90
2020,08,17,09,21,23.90
2020,08,17,09,22,23.90
2020,08,17,09,23,23.90
2020,08,17,09,24,23.90
2020,08,17,09,25,23.90
2020,08,17,09,26,23.90
2020,08,17,09,27,24.00
2020,08,17,09,28,24.10
2020,08,17,09,29,24.10
2020,08,17,09,30,24.10
2020,08,17,09,31,24.10
2020,08,17,09,32,24.20
2020,08,17,09,33,24.20
2020,08,17,09,34,24.30
2020,08,17,09,35,24.40
2020,08,17,09,36,24.40
2020,08,17,09,37,24.50
2020,08,17,09,38,24.50
2020,08,17,09,39,24.60
2020,08,17,09,40,24.60
2020,08,17,09,41,24.70
2020,08,17,09,42,24.70
2020,08,17,09,43,24.80
2020,08,17,09,44,24.90
2020,08,17,09,45,25.00
2020,08,17,09,46,25.00
2020,08,17,09,47,25.10
2020,08,17,09,48,25.10
2020,08,17,09,49,25.20
2020,08,17,09,50,25.10
2020,08,17,09,51,25.10
2020,08,17,09,52,25.10
2020,08,17,09,53,25.10
2020,08,17,09,54,25.20
2020,08,17,09,55,25.20
2020,08,17,09,56,25.20
2020,08,17,09,57,25.20
2020,08,17,09,58,25.20
2020,08,17,09,59,25.30
2020,08,17,10,00,25.40
2020,08,17,10,01,25.50
2020,08,17,10,02,25.50
2020,08,17,10,03,25.50
2020,08,17,10,04,25.60
2020,08,17,10,05,25.60
2020,08,17,10,06,25.60
2020,08,17,10,07,25.60
2020,08,17,10,08,25.60
2020,08,17,10,09,25.50
2020,08,17,10,10,25.50
2020,08,17,10,11,25.40
2020,08,17,10,12,25.40
2020,08,17,10,13,25.30
2020,08,17,10,14,25.30
2020,08,17,10,15,25.20
2020,08,17,10,16,25.20
2020,08,17,10,17,25.20
2020,08,17,10,18,25.20
2020,08,17,10,19,25.30
2020,08,17,10,20,25.40
2020,08,17,10,21,25.50
2020,08,17,10,22,25.60
2020,08,17,10,23,25.70
2020,08,17,10,24,25.70
2020,08,17,10,25,25.60
2020,08,17,10,26,25.60
2020,08,17,10,27,25.50
2020,08,17,10,28,25.60
2020,08,17,10,29,25.60
2020,08,17,10,30,25.70
2020,08,17,10,31,25.70
2020,08,17,10,32,25.70
2020,08,17,10,33,25.70
2020,08,17,10,34,25.80
2020,08,17,10,35,25.80
2020,08,17,10,36,25.80
2020,08,17,10,37,25.80
2020,08,17,10,38,25.90
2020,08,17,10,39,25.90
2020,08,17,10,40,26.00
2020,08,17,10,41,26.00
2020,08,17,10,42,26.10
2020,08,17,10,43,26.20
2020,08,17,10,44,26.20
2020,08,17,10,45,26.20
2020,08,17,10,46,26.20
2020,08,17,10,47,26.20
2020,08,17,10,48,26.20
2020,08,17,10,49,26.20
2020,08,17,10,50,26.20
2020,08,17,10,51,26.10
2020,08,17,10,52,26.20
2020,08,17,10,53,26.10
2020,08,17,10,54,26.10
2020,08,17,10,55,26.10
2020,08,17,10,56,26.00
2020,08,17,10,57,26.00
2020,08,17,10,58,26.00
2020,08,17,10,59,26.00
2020,08,17,11,00,26.00
2020,08,17,11,01,25.90
2020,08,17,11,02,25.90
2020,08,17,11,03,25.90
2020,08,17,11,04,25.80
2020,08,17,11,05,25.70
2020,08,17,11,06,25.70
2020,08,17,11,07,25.70
2020,08,17,11,08,25.90
2020,08,17,11,09,25.90
2020,08,17,11,10,25.70
2020,08,17,11,11,25.70
2020,08,17,11,12,25.70
2020,08,17,11,13,25.70
2020,08,17,11,14,25.50
2020,08,17,11,15,25.40
2020,08,17,11,16,25.40
2020,08,17,11,17,25.30
2020,08,17,11,18,25.30
2020,08,17,11,19,25.30
2020,08,17,11,20,25.20
2020,08,17,11,21,25.10
2020,08,17,11,22,25.10
2020,08,17,11,23,24.90
2020,08,17,11,24,24.90
2020,08,17,11,25,24.90
2020,08,17,11,26,24.80
2020,08,17,11,27,24.90
2020,08,17,11,28,24.80
2020,08,17,11,29,24.80
2020,08,17,11,30,24.90
2020,08,17,11,31,24.90
2020,08,17,11,32,24.90
2020,08,17,11,33,25.00
2020,08,17,11,34,25.10
2020,08,17,11,35,25.20
2020,08,17,11,36,25.40
2020,08,17,11,37,25.40
2020,08,17,11,38,25.50
2020,08,17,11,39,25.60
2020,08,17,11,40,25.70
2020,08,17,11,41,25.80
2020,08,17,11,42,25.80
2020,08,17,11,43,25.80
2020,08,17,11,44,25.70
2020,08,17,11,45,25.60
2020,08,17,11,46,25.50
2020,08,17,11,47,25.50
2020,08,17,11,48,25.50
2020,08,17,11,49,25.50
2020,08,17,11,50,25.50
2020,08,17,11,51,25.40
2020,08,17,11,52,25.50
2020,08,17,11,53,25.60
2020,08,17,11,54,25.60
2020,08,17,11,55,25.50
2020,08,17,11,56,25.60
2020,08,17,11,57,25.60
2020,08,17,11,58,25.50
2020,08,17,11,59,25.50
2020,08,17,12,00,25.70
2020,08,17,12,01,25.80
2020,08,17,12,02,25.80
2020,08,17,12,03,25.80
2020,08,17,12,04,25.70
2020,08,17,12,05,25.70
2020,08,17,12,06,25.70
2020,08,17,12,07,25.80
2020,08,17,12,08,25.80
2020,08,17,12,09,25.80
2020,08,17,12,10,25.80
2020,08,17,12,11,25.80
2020,08,17,12,12,25.80
2020,08,17,12,13,25.90
2020,08,17,12,14,25.90
2020,08,17,12,15,25.90
2020,08,17,12,16,25.80
2020,08,17,12,17,25.90
2020,08,17,12,18,25.90
2020,08,17,12,19,26.00
2020,08,17,12,20,26.10
2020,08,17,12,21,26.10
2020,08,17,12,22,26.00
2020,08,17,12,23,25.90
2020,08,17,12,24,25.80
2020,08,17,12,25,25.70
2020,08,17,12,26,25.60
2020,08,17,12,27,25.50
2020,08,17,12,28,25.30
2020,08,17,12,29,25.20
2020,08,17,12,30,25.20
2020,08,17,12,31,25.30
2020,08,17,12,32,25.40
2020,08,17,12,33,25.40
2020,08,17,12,34,25.40
2020,08,17,12,35,25.30
2020,08,17,12,36,25.20
2020,08,17,12,37,25.30
2020,08,17,12,38,25.40
2020,08,17,12,39,25.30
2020,08,17,12,40,25.20
2020,08,17,12,41,25.30
2020,08,17,12,42,25.30
2020,08,17,12,43,25.30
2020,08,17,12,44,25.30
2020,08,17,12,45,25.40
2020,08,17,12,46,25.40
2020,08,17,12,47,25.40
2020,08,17,12,48,25.40
2020,08,17,12,49,25.30
2020,08,17,12,50,25.10
2020,08,17,12,51,25.00
2020,08,17,12,52,24.90
2020,08,17,12,53,24.90
2020,08,17,12,54,25.10
2020,08,17,12,55,25.30
2020,08,17,12,56,25.30
2020,08,17,12,57,25.20
2020,08,17,12,58,25.10
2020,08,17,12,59,25.10
2020,08,17,13,00,25.20
2020,08,17,13,01,25.20
2020,08,17,13,02,25.30
2020,08,17,13,03,25.40
2020,08,17,13,04,25.40
2020,08,17,13,05,25.50
2020,08,17,13,06,25.50
2020,08,17,13,07,25.30
2020,08,17,13,08,25.20
2020,08,17,13,09,25.20
2020,08,17,13,10,25.30
2020,08,17,13,11,25.20
2020,08,17,13,12,25.30
2020,08,17,13,13,25.20
2020,08,17,13,14,25.20
2020,08,17,13,15,25.20
2020,08,17,13,16,25.30
2020,08,17,13,17,25.40
2020,08,17,13,18,25.50
2020,08,17,13,19,25.60
2020,08,17,13,20,25.70
2020,08,17,13,21,25.70
2020,08,17,13,22,25.80
2020,08,17,13,23,25.90
2020,08,17,13,24,25.90
2020,08,17,13,25,25.90
2020,08,17,13,26,25.90
2020,08,17,13,27,25.70
2020,08,17,13,28,25.70
2020,08,17,13,29,25.70
2020,08,17,13,30,25.70
2020,08,17,13,31,25.70
2020,08,17,13,32,25.70
2020,08,17,13,33,25.70
2020,08,17,13,34,25.60
2020,08,17,13,35,25.50
2020,08,17,13,36,25.40
2020,08,17,13,37,25.30
2020,08,17,13,38,25.20
2020,08,17,13,39,25.20
2020,08,17,13,40,25.20
2020,08,17,13,41,25.30
2020,08,17,13,42,25.30
2020,08,17,13,43,25.30
2020,08,17,13,44,25.40
2020,08,17,13,45,25.40
2020,08,17,13,46,25.50
2020,08,17,13,47,25.40
2020,08,17,13,48,25.50
2020,08,17,13,49,25.50
2020,08,17,13,50,25.50
2020,08,17,13,51,25.60
2020,08,17,13,52,25.70
2020,08,17,13,53,25.80
2020,08,17,13,54,25.80
2020,08,17,13,55,25.80
2020,08,17,13,56,25.80
2020,08,17,13,57,25.90
2020,08,17,13,58,26.00
2020,08,17,13,59,26.10
2020,08,17,14,00,26.00
2020,08,17,14,01,26.00
2020,08,17,14,02,26.00
2020,08,17,14,03,25.80
2020,08,17,14,04,25.70
2020,08,17,14,05,25.80
2020,08,17,14,06,25.80
2020,08,17,14,07,25.70
2020,08,17,14,08,25.70
2020,08,17,14,09,25.60
2020,08,17,14,10,25.60
2020,08,17,14,11,25.80
2020,08,17,14,12,25.90
2020,08,17,14,13,26.00
2020,08,17,14,14,26.30
2020,08,17,14,15,26.40
2020,08,17,14,16,26.40
2020,08,17,14,17,26.40
2020,08,17,14,18,26.40
2020,08,17,14,19,26.40
2020,08,17,14,20,26.20
2020,08,17,14,21,26.00
2020,08,17,14,22,25.90
2020,08,17,14,23,25.90
2020,08,17,14,24,26.10
2020,08,17,14,25,26.30
2020,08,17,14,26,26.50
2020,08,17,14,27,26.60
2020,08,17,14,28,26.70
2020,08,17,14,29,26.80
2020,08,17,14,30,26.90
2020,08,17,14,31,27.10
2020,08,17,14,32,27.20
2020,08,17,14,33,27.20
2020,08,17,14,34,27.20
2020,08,17,14,35,27.20
2020,08,17,14,36,27.10
2020,08,17,14,37,26.90
2020,08,17,14,38,26.90
2020,08,17,14,39,26.90
2020,08,17,14,40,26.90
2020,08,17,14,41,27.00
2020,08,17,14,42,26.90
2020,08,17,14,43,26.80
2020,08,17,14,44,26.80
2020,08,17,14,45,26.80
2020,08,17,14,46,26.80
2020,08,17,14,47,26.80
2020,08,17,14,48,27.00
2020,08,17,14,49,27.10
2020,08,17,14,50,27.10
2020,08,17,14,51,27.10
2020,08,17,14,52,27.10
2020,08,17,14,53,27.10
2020,08,17,14,54,27.20
2020,08,17,14,55,27.20
2020,08,17,14,56,27.10
2020,08,17,14,57,26.90
2020,08,17,14,58,26.80
2020,08,17,14,59,26.80
2020,08,17,15,00,26.90
2020,08,17,15,01,27.00
2020,08,17,15,02,27.20
2020,08,17,15,03,27.10
2020,08,17,15,04,27.20
2020,08,17,15,05,27.20
2020,08,17,15,06,27.30
2020,08,17,15,07,27.30
2020,08,17,15,08,27.30
2020,08,17,15,09,27.30
2020,08,17,15,10,27.30
2020,08,17,15,11,27.40
2020,08,17,15,12,27.50
2020,08,17,15,13,27.60
2020,08,17,15,14,27.40
2020,08,17,15,15,27.40
2020,08,17,15,16,27.40
2020,08,17,15,17,27.50
2020,08,17,15,18,27.60
2020,08,17,15,19,27.70
2020,08,17,15,20,27.70
2020,08,17,15,21,27.70
2020,08,17,15,22,27.80
2020,08,17,15,23,27.70
2020,08,17,15,24,27.70
2020,08,17,15,25,27.60
2020,08,17,15,26,27.60
2020,08,17,15,27,27.60
2020,08,17,15,28,27.70
2020,08,17,15,29,27.80
2020,08,17,15,30,27.60
2020,08,17,15,31,27.60
2020,08,17,15,32,27.60
2020,08,17,15,33,27.60
2020,08,17,15,34,27.60
2020,08,17,15,35,27.60
2020,08,17,15,36,27.70
2020,08,17,15,37,27.70
2020,08,17,15,38,27.60
2020,08,17,15,39,27.60
2020,08,17,15,40,27.60
2020,08,17,15,41,27.60
2020,08,17,15,42,27.70
2020,08,17,15,43,27.80
2020,08,17,15,44,27.90
2020,08,17,15,45,27.90
2020,08,17,15,46,28.00
2020,08,17,15,47,28.10
2020,08,17,15,48,28.10
2020,08,17,15,49,28.00
2020,08,17,15,50,28.10
2020,08,17,15,51,28.10
2020,08,17,15,52,28.10
2020,08,17,15,53,28.20
2020,08,17,15,54,28.30
2020,08,17,15,55,28.30
2020,08,17,15,56,28.30
2020,08,17,15,57,28.30
2020,08,17,15,58,28.40
2020,08,17,15,59,28.40
2020,08,17,16,00,28.50
2020,08,17,16,01,28.60
2020,08,17,16,02,28.60
2020,08,17,16,03,28.60
2020,08,17,16,04,28.60
2020,08,17,16,05,28.50
2020,08,17,16,06,28.40
2020,08,17,16,07,28.40
2020,08,17,16,08,28.40
2020,08,17,16,09,28.40
2020,08,17,16,10,28.40
2020,08,17,16,11,28.40
2020,08,17,16,12,28.50
2020,08,17,16,13,28.60
2020,08,17,16,14,28.60
2020,08,17,16,15,28.40
2020,08,17,16,16,28.30
2020,08,17,16,17,28.40
2020,08,17,16,18,28.40
2020,08,17,16,19,28.30
2020,08,17,16,20,28.40
2020,08,17,16,21,28.40
2020,08,17,16,22,28.40
2020,08,17,16,23,28.30
2020,08,17,16,24,28.30
2020,08,17,16,25,28.30
2020,08,17,16,26,28.20
2020,08,17,16,27,28.30
2020,08,17,16,28,28.20
2020,08,17,16,29,28.10
2020,08,17,16,30,28.00
2020,08,17,16,31,28.00
2020,08,17,16,32,28.10
2020,08,17,16,33,28.10
2020,08,17,16,34,28.10
2020,08,17,16,35,28.10
2020,08,17,16,36,28.20
2020,08,17,16,37,28.20
2020,08,17,16,38,28.30
2020,08,17,16,39,28.30
2020,08,17,16,40,28.30
2020,08,17,16,41,28.40
2020,08,17,16,42,28.60
2020,08,17,16,43,28.60
2020,08,17,16,44,28.60
2020,08,17,16,45,28.60
2020,08,17,16,46,28.70
2020,08,17,16,47,28.80
2020,08,17,16,48,28.80
2020,08,17,16,49,28.90
2020,08,17,16,50,28.90
2020,08,17,16,51,28.90
2020,08,17,16,52,28.90
2020,08,17,16,53,29.00
2020,08,17,16,54,29.10
2020,08,17,16,55,29.10
2020,08,17,16,56,29.10
2020,08,17,16,57,29.10
2020,08,17,16,58,29.10
2020,08,17,16,59,28.90
2020,08,17,17,00,28.70
2020,08,17,17,01,28.50
2020,08,17,17,02,28.40
2020,08,17,17,03,28.20
2020,08,17,17,04,28.20
2020,08,17,17,05,28.10
2020,08,17,17,06,28.10
2020,08,17,17,07,28.20
2020,08,17,17,08,28.10
2020,08,17,17,09,28.10
2020,08,17,17,10,28.10
2020,08,17,17,11,28.10
2020,08,17,17,12,28.00
2020,08,17,17,13,28.10
2020,08,17,17,14,28.10
2020,08,17,17,15,28.10
2020,08,17,17,16,28.10
2020,08,17,17,17,28.10
2020,08,17,17,18,28.00
2020,08,17,17,19,27.80